NORTHERN QUEENS  -  Heat Advisory Heat Advisory     Air Quality Alert Air Quality Alert        SOUTHERN QUEENS  -  Heat Advisory Heat Advisory     Air Quality Alert Air Quality Alert      

Active alerts

Northern Queens
  Details for Northern Queens Heat Advisory  +1 additional alert
Southern Queens
  Details for Southern Queens Heat Advisory  +1 additional alert


WXM80 ListenWXM80 Stop

You find our weather info also at:

UK Metoffice

WeatherCloud

Weather Underground

Northeastern Weather Network

AWEKAS

Citizen Weather Observer Program (CWOP)

HAMweather, WeatherForYou, PWS Weather


Weather Underground History page Text

Daily Summary for May 10, 2017 Units:  Both    English   Metric
« Previous Day
Next Day »
Daily Weekly Monthly Yearly Custom
  High: Low: Average:
Temperature: 66.8 °F /  19.3 °C 46.5 °F /  8.1 °C 55.1 °F /  12.8 °C
Dew Point: 45.2 °F /  7.3 °C 38.1 °F /  3.4 °C 41.9 °F /  5.5 °C
Humidity: 90 % 39 % 63 %
Wind Speed: 4.6 mph /  7.4 km/h - 1.1 mph /  1.8 km/h
Wind Gust: 8.1 mph /  13 km/h - -
Wind:- - East
Pressure: 30.02 in /  1016.5 hPa 29.96 in /  1014.4 hPa -
Precipitation: 0.00 in /  0 mm    
Historical Graphs
 
 
Tabular Data for May 10, 2017
Time Temperature Dew Point Pressure Wind Wind Speed Wind Gust Humidity Rainfall Rate (Hourly)
00:04 48.1 °F /  8.9 °C 41.9 °F /  5.5 °C 29.96 in /  1014.4 hPa Calm     79 % 0.00 in /  0 mm
00:09 48.0 °F /  8.9 °C 42.1 °F /  5.6 °C 29.97 in /  1014.8 hPa Calm     80 % 0.00 in /  0 mm
00:14 47.8 °F /  8.8 °C 41.9 °F /  5.5 °C 29.97 in /  1014.8 hPa Calm     80 % 0.00 in /  0 mm
00:19 47.7 °F /  8.7 °C 41.8 °F /  5.4 °C 29.97 in /  1014.8 hPa Calm     80 % 0.00 in /  0 mm
00:24 47.5 °F /  8.6 °C 41.6 °F /  5.3 °C 29.97 in /  1014.8 hPa Calm     80 % 0.00 in /  0 mm
00:29 47.4 °F /  8.6 °C 41.5 °F /  5.3 °C 29.97 in /  1014.8 hPa Calm     80 % 0.00 in /  0 mm
00:34 47.4 °F /  8.6 °C 41.9 °F /  5.5 °C 29.98 in /  1015.1 hPa Calm     81 % 0.00 in /  0 mm
00:39 47.3 °F /  8.5 °C 42.1 °F /  5.6 °C 29.97 in /  1014.8 hPa Calm     82 % 0.00 in /  0 mm
00:44 47.2 °F /  8.4 °C 42.0 °F /  5.6 °C 29.97 in /  1014.8 hPa Calm     82 % 0.00 in /  0 mm
00:49 47.2 °F /  8.4 °C 42.3 °F /  5.7 °C 29.97 in /  1014.8 hPa Calm     83 % 0.00 in /  0 mm
00:52 47.2 °F /  8.4 °C 42.3 °F /  5.7 °C 29.97 in /  1014.8 hPa Calm     83 % 0.00 in /  0 mm
00:57 47.1 °F /  8.4 °C 42.5 °F /  5.8 °C 29.97 in /  1014.8 hPa Calm     84 % 0.00 in /  0 mm
01:02 47.1 °F /  8.4 °C 42.5 °F /  5.8 °C 29.96 in /  1014.4 hPa Calm     84 % 0.00 in /  0 mm
01:07 47.0 °F /  8.3 °C 42.7 °F /  5.9 °C 29.96 in /  1014.4 hPa Calm     85 % 0.00 in /  0 mm
01:12 46.9 °F /  8.3 °C 42.6 °F /  5.9 °C 29.96 in /  1014.4 hPa Calm     85 % 0.00 in /  0 mm
01:17 46.9 °F /  8.3 °C 42.6 °F /  5.9 °C 29.96 in /  1014.4 hPa Calm     85 % 0.00 in /  0 mm
01:22 46.8 °F /  8.2 °C 42.5 °F /  5.8 °C 29.96 in /  1014.4 hPa Calm     85 % 0.00 in /  0 mm
01:28 46.8 °F /  8.2 °C 42.5 °F /  5.8 °C 29.96 in /  1014.4 hPa Calm     85 % 0.00 in /  0 mm
01:33 46.7 °F /  8.2 °C 42.7 °F /  5.9 °C 29.96 in /  1014.4 hPa Calm     86 % 0.00 in /  0 mm
01:38 46.7 °F /  8.2 °C 42.7 °F /  5.9 °C 29.96 in /  1014.4 hPa Calm     86 % 0.00 in /  0 mm
01:43 46.7 °F /  8.2 °C 43.0 °F /  6.1 °C 29.96 in /  1014.4 hPa ENE 0.1 mph /  0.2 km/h 1.2 mph /  1.9 km/h 87 % 0.00 in /  0 mm
01:48 46.6 °F /  8.1 °C 43.2 °F /  6.2 °C 29.96 in /  1014.4 hPa Calm     88 % 0.00 in /  0 mm
01:53 46.6 °F /  8.1 °C 42.9 °F /  6.1 °C 29.96 in /  1014.4 hPa Calm     87 % 0.00 in /  0 mm
01:58 46.6 °F /  8.1 °C 43.2 °F /  6.2 °C 29.97 in /  1014.8 hPa Calm     88 % 0.00 in /  0 mm
02:03 46.5 °F /  8.1 °C 43.4 °F /  6.3 °C 29.97 in /  1014.8 hPa Calm     89 % 0.00 in /  0 mm
02:08 46.5 °F /  8.1 °C 43.4 °F /  6.3 °C 29.97 in /  1014.8 hPa Calm     89 % 0.00 in /  0 mm
02:13 46.5 °F /  8.1 °C 43.4 °F /  6.3 °C 29.97 in /  1014.8 hPa Calm     89 % 0.00 in /  0 mm
02:18 46.6 °F /  8.1 °C 43.5 °F /  6.4 °C 29.96 in /  1014.4 hPa Calm     89 % 0.00 in /  0 mm
02:23 46.6 °F /  8.1 °C 43.5 °F /  6.4 °C 29.96 in /  1014.4 hPa Calm     89 % 0.00 in /  0 mm
02:28 46.6 °F /  8.1 °C 43.5 °F /  6.4 °C 29.96 in /  1014.4 hPa Calm     89 % 0.00 in /  0 mm
02:33 46.5 °F /  8.1 °C 43.4 °F /  6.3 °C 29.97 in /  1014.8 hPa Calm     89 % 0.00 in /  0 mm
02:38 46.6 °F /  8.1 °C 43.5 °F /  6.4 °C 29.97 in /  1014.8 hPa Calm     89 % 0.00 in /  0 mm
02:43 46.6 °F /  8.1 °C 43.5 °F /  6.4 °C 29.96 in /  1014.4 hPa Calm     89 % 0.00 in /  0 mm
02:48 46.6 °F /  8.1 °C 43.5 °F /  6.4 °C 29.97 in /  1014.8 hPa Calm     89 % 0.00 in /  0 mm
02:53 46.6 °F /  8.1 °C 43.5 °F /  6.4 °C 29.96 in /  1014.4 hPa Calm     89 % 0.00 in /  0 mm
02:59 46.7 °F /  8.2 °C 43.9 °F /  6.6 °C 29.96 in /  1014.4 hPa Calm     90 % 0.00 in /  0 mm
03:04 46.7 °F /  8.2 °C 43.9 °F /  6.6 °C 29.96 in /  1014.4 hPa Calm     90 % 0.00 in /  0 mm
03:09 46.7 °F /  8.2 °C 43.9 °F /  6.6 °C 29.96 in /  1014.4 hPa Calm     90 % 0.00 in /  0 mm
03:14 46.7 °F /  8.2 °C 43.9 °F /  6.6 °C 29.96 in /  1014.4 hPa Calm     90 % 0.00 in /  0 mm
03:19 46.7 °F /  8.2 °C 43.9 °F /  6.6 °C 29.96 in /  1014.4 hPa Calm     90 % 0.00 in /  0 mm
03:24 46.7 °F /  8.2 °C 43.9 °F /  6.6 °C 29.96 in /  1014.4 hPa Calm     90 % 0.00 in /  0 mm
03:29 46.7 °F /  8.2 °C 43.9 °F /  6.6 °C 29.96 in /  1014.4 hPa Calm     90 % 0.00 in /  0 mm
03:34 46.7 °F /  8.2 °C 43.6 °F /  6.4 °C 29.96 in /  1014.4 hPa Calm     89 % 0.00 in /  0 mm
03:35 46.7 °F /  8.2 °C 43.6 °F /  6.4 °C 29.96 in /  1014.4 hPa Calm     89 % 0.00 in /  0 mm
03:40 46.7 °F /  8.2 °C 43.6 °F /  6.4 °C 29.96 in /  1014.4 hPa Calm   1.0 mph /  1.6 km/h 89 % 0.00 in /  0 mm
03:45 46.7 °F /  8.2 °C 43.3 °F /  6.3 °C 29.96 in /  1014.4 hPa Calm     88 % 0.00 in /  0 mm
03:47 46.7 °F /  8.2 °C 43.3 °F /  6.3 °C 29.96 in /  1014.4 hPa Calm     88 % 0.00 in /  0 mm
03:52 46.7 °F /  8.2 °C 43.3 °F /  6.3 °C 29.96 in /  1014.4 hPa Calm     88 % 0.00 in /  0 mm
03:57 46.7 °F /  8.2 °C 43.0 °F /  6.1 °C 29.97 in /  1014.8 hPa ENE 0.6 mph /  1 km/h 2.0 mph /  3.2 km/h 87 % 0.00 in /  0 mm
04:02 46.6 °F /  8.1 °C 42.3 °F /  5.7 °C 29.97 in /  1014.8 hPa NNE 1.3 mph /  2.1 km/h 3.5 mph /  5.6 km/h 85 % 0.00 in /  0 mm
04:07 46.7 °F /  8.2 °C 42.4 °F /  5.8 °C 29.97 in /  1014.8 hPa NNE 0.4 mph /  0.6 km/h 1.0 mph /  1.6 km/h 85 % 0.00 in /  0 mm
04:12 46.8 °F /  8.2 °C 42.5 °F /  5.8 °C 29.96 in /  1014.4 hPa NNE 2.7 mph /  4.3 km/h 3.5 mph /  5.6 km/h 85 % 0.00 in /  0 mm
04:14 46.8 °F /  8.2 °C 42.2 °F /  5.7 °C 29.97 in /  1014.8 hPa NNE 2.0 mph /  3.2 km/h 3.5 mph /  5.6 km/h 84 % 0.00 in /  0 mm
04:19 46.9 °F /  8.3 °C 42.0 °F /  5.6 °C 29.97 in /  1014.8 hPa NNE 0.9 mph /  1.4 km/h 3.5 mph /  5.6 km/h 83 % 0.00 in /  0 mm
04:24 47.0 °F /  8.3 °C 41.8 °F /  5.4 °C 29.97 in /  1014.8 hPa NNE 2.4 mph /  3.9 km/h 3.5 mph /  5.6 km/h 82 % 0.00 in /  0 mm
04:29 47.1 °F /  8.4 °C 41.2 °F /  5.1 °C 29.97 in /  1014.8 hPa NNE 3.6 mph /  5.8 km/h 5.8 mph /  9.3 km/h 80 % 0.00 in /  0 mm
04:34 47.3 °F /  8.5 °C 41.1 °F /  5.1 °C 29.97 in /  1014.8 hPa NNE 3.0 mph /  4.8 km/h 3.5 mph /  5.6 km/h 79 % 0.00 in /  0 mm
04:39 47.4 °F /  8.6 °C 41.2 °F /  5.1 °C 29.97 in /  1014.8 hPa NNE 0.9 mph /  1.4 km/h 3.5 mph /  5.6 km/h 79 % 0.00 in /  0 mm
04:44 47.6 °F /  8.7 °C 41.1 °F /  5.1 °C 29.96 in /  1014.4 hPa North 1.3 mph /  2.1 km/h 3.5 mph /  5.6 km/h 78 % 0.00 in /  0 mm
04:49 47.7 °F /  8.7 °C 40.8 °F /  4.9 °C 29.96 in /  1014.4 hPa NNE 2.4 mph /  3.9 km/h 4.6 mph /  7.4 km/h 77 % 0.00 in /  0 mm
04:54 47.7 °F /  8.7 °C 40.8 °F /  4.9 °C 29.96 in /  1014.4 hPa NNE 2.5 mph /  4 km/h 4.0 mph /  6.4 km/h 77 % 0.00 in /  0 mm
04:59 47.8 °F /  8.8 °C 40.6 °F /  4.8 °C 29.96 in /  1014.4 hPa North 1.4 mph /  2.3 km/h 3.5 mph /  5.6 km/h 76 % 0.00 in /  0 mm
05:04 47.8 °F /  8.8 °C 40.6 °F /  4.8 °C 29.96 in /  1014.4 hPa Calm     76 % 0.00 in /  0 mm
05:09 47.9 °F /  8.8 °C 40.7 °F /  4.8 °C 29.96 in /  1014.4 hPa NNE 1.9 mph /  3.1 km/h 3.5 mph /  5.6 km/h 76 % 0.00 in /  0 mm
05:10 47.9 °F /  8.8 °C 40.7 °F /  4.8 °C 29.96 in /  1014.4 hPa NNE 2.3 mph /  3.7 km/h 3.5 mph /  5.6 km/h 76 % 0.00 in /  0 mm
05:15 47.9 °F /  8.8 °C 40.7 °F /  4.8 °C 29.96 in /  1014.4 hPa NNE 0.4 mph /  0.6 km/h 3.5 mph /  5.6 km/h 76 % 0.00 in /  0 mm
05:20 47.8 °F /  8.8 °C 40.3 °F /  4.6 °C 29.96 in /  1014.4 hPa NNE 0.2 mph /  0.3 km/h 2.3 mph /  3.7 km/h 75 % 0.00 in /  0 mm
05:25 47.8 °F /  8.8 °C 40.3 °F /  4.6 °C 29.97 in /  1014.8 hPa NNE 0.4 mph /  0.6 km/h 2.3 mph /  3.7 km/h 75 % 0.00 in /  0 mm
05:30 47.8 °F /  8.8 °C 40.3 °F /  4.6 °C 29.97 in /  1014.8 hPa NNE 0.3 mph /  0.5 km/h 1.2 mph /  1.9 km/h 75 % 0.00 in /  0 mm
05:35 47.7 °F /  8.7 °C 40.5 °F /  4.7 °C 29.97 in /  1014.8 hPa NNE 0.9 mph /  1.4 km/h 2.3 mph /  3.7 km/h 76 % 0.00 in /  0 mm
05:40 47.7 °F /  8.7 °C 40.5 °F /  4.7 °C 29.97 in /  1014.8 hPa NNE 3.0 mph /  4.8 km/h 5.8 mph /  9.3 km/h 76 % 0.00 in /  0 mm
05:45 47.6 °F /  8.7 °C 40.4 °F /  4.7 °C 29.97 in /  1014.8 hPa NNE 1.9 mph /  3.1 km/h 3.5 mph /  5.6 km/h 76 % 0.00 in /  0 mm
05:50 47.6 °F /  8.7 °C 40.4 °F /  4.7 °C 29.97 in /  1014.8 hPa NNE 0.7 mph /  1.1 km/h 2.3 mph /  3.7 km/h 76 % 0.00 in /  0 mm
05:55 47.6 °F /  8.7 °C 40.4 °F /  4.7 °C 29.97 in /  1014.8 hPa NE 0.9 mph /  1.4 km/h 2.3 mph /  3.7 km/h 76 % 0.00 in /  0 mm
06:00 47.6 °F /  8.7 °C 40.1 °F /  4.5 °C 29.98 in /  1015.1 hPa NNE 1.6 mph /  2.6 km/h 3.5 mph /  5.6 km/h 75 % 0.00 in /  0 mm
06:05 47.5 °F /  8.6 °C 39.6 °F /  4.2 °C 29.98 in /  1015.1 hPa NNE 1.3 mph /  2.1 km/h 3.5 mph /  5.6 km/h 74 % 0.00 in /  0 mm
06:11 47.5 °F /  8.6 °C 39.6 °F /  4.2 °C 29.98 in /  1015.1 hPa Calm     74 % 0.00 in /  0 mm
06:16 47.5 °F /  8.6 °C 39.6 °F /  4.2 °C 29.98 in /  1015.1 hPa North 0.7 mph /  1.1 km/h 4.6 mph /  7.4 km/h 74 % 0.00 in /  0 mm
06:21 47.5 °F /  8.6 °C 39.6 °F /  4.2 °C 29.98 in /  1015.1 hPa NNE 1.0 mph /  1.6 km/h 3.0 mph /  4.8 km/h 74 % 0.00 in /  0 mm
06:26 47.5 °F /  8.6 °C 39.6 °F /  4.2 °C 29.99 in /  1015.5 hPa NE 1.0 mph /  1.6 km/h 4.0 mph /  6.4 km/h 74 % 0.00 in /  0 mm
06:31 47.6 °F /  8.7 °C 39.8 °F /  4.3 °C 29.99 in /  1015.5 hPa ENE 2.0 mph /  3.2 km/h 4.0 mph /  6.4 km/h 74 % 0.00 in /  0 mm
06:36 47.9 °F /  8.8 °C 40.4 °F /  4.7 °C 29.99 in /  1015.5 hPa ENE 1.0 mph /  1.6 km/h 4.0 mph /  6.4 km/h 75 % 0.00 in /  0 mm
06:41 48.2 °F /  9 °C 40.7 °F /  4.8 °C 29.99 in /  1015.5 hPa ENE 1.0 mph /  1.6 km/h 5.0 mph /  8 km/h 75 % 0.00 in /  0 mm
06:46 48.5 °F /  9.2 °C 40.6 °F /  4.8 °C 29.99 in /  1015.5 hPa Calm   4.0 mph /  6.4 km/h 74 % 0.00 in /  0 mm
06:51 48.8 °F /  9.3 °C 40.9 °F /  4.9 °C 29.99 in /  1015.5 hPa ENE 1.0 mph /  1.6 km/h 5.0 mph /  8 km/h 74 % 0.00 in /  0 mm
06:56 49.1 °F /  9.5 °C 41.5 °F /  5.3 °C 29.99 in /  1015.5 hPa Calm   3.0 mph /  4.8 km/h 75 % 0.00 in /  0 mm
07:00 49.6 °F /  9.8 °C 41.3 °F /  5.2 °C 29.99 in /  1015.5 hPa North 1.1 mph /  1.8 km/h 3.5 mph /  5.6 km/h 73 % 0.00 in /  0 mm
07:06 50.1 °F /  10.1 °C 42.2 °F /  5.7 °C 29.99 in /  1015.5 hPa NE 1.0 mph /  1.6 km/h 4.0 mph /  6.4 km/h 74 % 0.00 in /  0 mm
07:11 50.8 °F /  10.4 °C 40.2 °F /  4.6 °C 30.00 in /  1015.8 hPa ENE 2.0 mph /  3.2 km/h 5.0 mph /  8 km/h 67 % 0.00 in /  0 mm
07:16 51.4 °F /  10.8 °C 40.0 °F /  4.4 °C 30.00 in /  1015.8 hPa ENE 2.0 mph /  3.2 km/h 6.0 mph /  9.7 km/h 65 % 0.00 in /  0 mm
07:21 51.8 °F /  11 °C 41.6 °F /  5.3 °C 29.99 in /  1015.5 hPa NNE 1.7 mph /  2.7 km/h 3.5 mph /  5.6 km/h 68 % 0.00 in /  0 mm
07:26 52.0 °F /  11.1 °C 41.4 °F /  5.2 °C 30.00 in /  1015.8 hPa NE 2.0 mph /  3.2 km/h 5.0 mph /  8 km/h 67 % 0.00 in /  0 mm
07:31 52.1 °F /  11.2 °C 41.1 °F /  5.1 °C 29.99 in /  1015.5 hPa Calm   3.0 mph /  4.8 km/h 66 % 0.00 in /  0 mm
07:36 52.3 °F /  11.3 °C 41.3 °F /  5.2 °C 30.00 in /  1015.8 hPa NE 1.0 mph /  1.6 km/h 5.0 mph /  8 km/h 66 % 0.00 in /  0 mm
07:41 52.4 °F /  11.3 °C 41.0 °F /  5 °C 30.00 in /  1015.8 hPa NE 2.0 mph /  3.2 km/h 6.0 mph /  9.7 km/h 65 % 0.00 in /  0 mm
07:46 52.5 °F /  11.4 °C 41.5 °F /  5.3 °C 30.00 in /  1015.8 hPa NNE 1.0 mph /  1.6 km/h 5.0 mph /  8 km/h 66 % 0.00 in /  0 mm
07:51 52.5 °F /  11.4 °C 40.7 °F /  4.8 °C 30.00 in /  1015.8 hPa NNE 1.0 mph /  1.6 km/h 4.0 mph /  6.4 km/h 64 % 0.00 in /  0 mm
07:56 52.6 °F /  11.4 °C 41.9 °F /  5.5 °C 30.00 in /  1015.8 hPa NE 1.0 mph /  1.6 km/h 3.0 mph /  4.8 km/h 67 % 0.00 in /  0 mm
08:01 52.8 °F /  11.6 °C 41.7 °F /  5.4 °C 30.00 in /  1015.8 hPa NNE 4.2 mph /  6.8 km/h 5.8 mph /  9.3 km/h 66 % 0.00 in /  0 mm
08:06 52.8 °F /  11.6 °C 41.4 °F /  5.2 °C 30.00 in /  1015.8 hPa North 1.4 mph /  2.3 km/h 3.5 mph /  5.6 km/h 65 % 0.00 in /  0 mm
08:11 52.8 °F /  11.6 °C 41.4 °F /  5.2 °C 30.00 in /  1015.8 hPa NNE 2.3 mph /  3.7 km/h 3.5 mph /  5.6 km/h 65 % 0.00 in /  0 mm
08:16 52.6 °F /  11.4 °C 40.8 °F /  4.9 °C 30.00 in /  1015.8 hPa NE 2.4 mph /  3.9 km/h 3.5 mph /  5.6 km/h 64 % 0.00 in /  0 mm
08:21 52.7 °F /  11.5 °C 41.3 °F /  5.2 °C 30.00 in /  1015.8 hPa NE 2.2 mph /  3.5 km/h 3.5 mph /  5.6 km/h 65 % 0.00 in /  0 mm
08:26 52.8 °F /  11.6 °C 41.7 °F /  5.4 °C 30.00 in /  1015.8 hPa North 4.4 mph /  7.1 km/h 5.0 mph /  8 km/h 66 % 0.00 in /  0 mm
08:31 52.8 °F /  11.6 °C 40.1 °F /  4.5 °C 30.01 in /  1016.1 hPa NNE 1.6 mph /  2.6 km/h 4.6 mph /  7.4 km/h 62 % 0.00 in /  0 mm
08:36 52.8 °F /  11.6 °C 41.0 °F /  5 °C 30.01 in /  1016.1 hPa ENE 1.0 mph /  1.6 km/h 4.0 mph /  6.4 km/h 64 % 0.00 in /  0 mm
08:41 52.8 °F /  11.6 °C 41.0 °F /  5 °C 30.01 in /  1016.1 hPa NNE 3.4 mph /  5.5 km/h 5.8 mph /  9.3 km/h 64 % 0.00 in /  0 mm
08:46 52.9 °F /  11.6 °C 41.4 °F /  5.2 °C 30.01 in /  1016.1 hPa NNE 2.8 mph /  4.5 km/h 5.0 mph /  8 km/h 65 % 0.00 in /  0 mm
08:51 53.0 °F /  11.7 °C 40.7 °F /  4.8 °C 30.01 in /  1016.1 hPa NE 3.6 mph /  5.8 km/h 6.9 mph /  11.1 km/h 63 % 0.00 in /  0 mm
08:56 53.2 °F /  11.8 °C 40.5 °F /  4.7 °C 30.01 in /  1016.1 hPa ENE 4.6 mph /  7.4 km/h 8.0 mph /  12.9 km/h 62 % 0.00 in /  0 mm
09:01 53.0 °F /  11.7 °C 39.9 °F /  4.4 °C 30.01 in /  1016.1 hPa East 3.1 mph /  5 km/h 6.0 mph /  9.7 km/h 61 % 0.00 in /  0 mm
09:06 53.0 °F /  11.7 °C 40.7 °F /  4.8 °C 30.01 in /  1016.1 hPa ENE 2.0 mph /  3.2 km/h 5.0 mph /  8 km/h 63 % 0.00 in /  0 mm
09:11 53.2 °F /  11.8 °C 41.7 °F /  5.4 °C 30.01 in /  1016.1 hPa ENE 0.7 mph /  1.1 km/h 3.5 mph /  5.6 km/h 65 % 0.00 in /  0 mm
09:16 53.5 °F /  11.9 °C 42.0 °F /  5.6 °C 30.01 in /  1016.1 hPa NE 1.2 mph /  1.9 km/h 3.5 mph /  5.6 km/h 65 % 0.00 in /  0 mm
09:21 53.6 °F /  12 °C 41.3 °F /  5.2 °C 30.01 in /  1016.1 hPa North 3.3 mph /  5.3 km/h 5.8 mph /  9.3 km/h 63 % 0.00 in /  0 mm
09:26 53.8 °F /  12.1 °C 40.7 °F /  4.8 °C 30.01 in /  1016.1 hPa ENE 1.3 mph /  2.1 km/h 3.5 mph /  5.6 km/h 61 % 0.00 in /  0 mm
09:31 53.7 °F /  12.1 °C 39.7 °F /  4.3 °C 30.01 in /  1016.1 hPa ENE 1.0 mph /  1.6 km/h 3.5 mph /  5.6 km/h 59 % 0.00 in /  0 mm
09:36 53.7 °F /  12.1 °C 41.0 °F /  5 °C 30.01 in /  1016.1 hPa North 2.0 mph /  3.2 km/h 4.0 mph /  6.4 km/h 62 % 0.00 in /  0 mm
09:41 54.0 °F /  12.2 °C 41.7 °F /  5.4 °C 30.01 in /  1016.1 hPa North 3.6 mph /  5.8 km/h 5.8 mph /  9.3 km/h 63 % 0.00 in /  0 mm
09:46 54.4 °F /  12.4 °C 42.5 °F /  5.8 °C 30.01 in /  1016.1 hPa ENE 2.3 mph /  3.7 km/h 3.5 mph /  5.6 km/h 64 % 0.00 in /  0 mm
09:51 54.9 °F /  12.7 °C 42.5 °F /  5.8 °C 30.01 in /  1016.1 hPa ENE 1.8 mph /  2.9 km/h 3.5 mph /  5.6 km/h 63 % 0.00 in /  0 mm
09:56 55.5 °F /  13.1 °C 42.3 °F /  5.7 °C 30.01 in /  1016.1 hPa North 2.1 mph /  3.4 km/h 4.0 mph /  6.4 km/h 61 % 0.00 in /  0 mm
10:01 56.3 °F /  13.5 °C 42.6 °F /  5.9 °C 30.01 in /  1016.1 hPa ENE 1.3 mph /  2.1 km/h 3.0 mph /  4.8 km/h 60 % 0.00 in /  0 mm
10:06 56.6 °F /  13.7 °C 40.6 °F /  4.8 °C 30.01 in /  1016.1 hPa ENE 2.4 mph /  3.9 km/h 3.5 mph /  5.6 km/h 55 % 0.00 in /  0 mm
10:11 56.8 °F /  13.8 °C 41.3 °F /  5.2 °C 30.01 in /  1016.1 hPa ENE 2.4 mph /  3.9 km/h 5.0 mph /  8 km/h 56 % 0.00 in /  0 mm
10:16 57.3 °F /  14.1 °C 41.3 °F /  5.2 °C 30.00 in /  1015.8 hPa ENE 3.2 mph /  5.1 km/h 5.0 mph /  8 km/h 55 % 0.00 in /  0 mm
10:21 57.7 °F /  14.3 °C 42.1 °F /  5.6 °C 30.00 in /  1015.8 hPa NNE 0.2 mph /  0.3 km/h 2.3 mph /  3.7 km/h 56 % 0.00 in /  0 mm
10:26 57.8 °F /  14.3 °C 39.3 °F /  4.1 °C 30.00 in /  1015.8 hPa ENE 2.7 mph /  4.3 km/h 4.6 mph /  7.4 km/h 50 % 0.00 in /  0 mm
10:31 58.1 °F /  14.5 °C 42.0 °F /  5.6 °C 30.00 in /  1015.8 hPa ENE 2.0 mph /  3.2 km/h 5.0 mph /  8 km/h 55 % 0.00 in /  0 mm
10:36 58.5 °F /  14.7 °C 43.3 °F /  6.3 °C 30.00 in /  1015.8 hPa ENE 0.4 mph /  0.6 km/h 3.5 mph /  5.6 km/h 57 % 0.00 in /  0 mm
10:41 59.0 °F /  15 °C 42.4 °F /  5.8 °C 30.00 in /  1015.8 hPa NE 0.2 mph /  0.3 km/h 1.2 mph /  1.9 km/h 54 % 0.00 in /  0 mm
10:46 59.6 °F /  15.3 °C 40.9 °F /  4.9 °C 30.00 in /  1015.8 hPa East 0.4 mph /  0.6 km/h 1.2 mph /  1.9 km/h 50 % 0.00 in /  0 mm
10:51 59.5 °F /  15.3 °C 40.3 °F /  4.6 °C 30.00 in /  1015.8 hPa NE 1.7 mph /  2.7 km/h 3.5 mph /  5.6 km/h 49 % 0.00 in /  0 mm
10:56 59.8 °F /  15.4 °C 43.1 °F /  6.2 °C 30.00 in /  1015.8 hPa Calm   1.2 mph /  1.9 km/h 54 % 0.00 in /  0 mm
11:01 60.4 °F /  15.8 °C 42.7 °F /  5.9 °C 30.00 in /  1015.8 hPa NNE 3.1 mph /  5 km/h 4.6 mph /  7.4 km/h 52 % 0.00 in /  0 mm
11:06 61.4 °F /  16.3 °C 42.6 °F /  5.9 °C 29.99 in /  1015.5 hPa WSW 1.9 mph /  3.1 km/h 4.6 mph /  7.4 km/h 50 % 0.00 in /  0 mm
11:12 62.2 °F /  16.8 °C 43.8 °F /  6.6 °C 29.99 in /  1015.5 hPa North 1.9 mph /  3.1 km/h 5.8 mph /  9.3 km/h 51 % 0.00 in /  0 mm
11:17 62.6 °F /  17 °C 42.1 °F /  5.6 °C 29.99 in /  1015.5 hPa NNE 2.3 mph /  3.7 km/h 5.0 mph /  8 km/h 47 % 0.00 in /  0 mm
11:22 63.1 °F /  17.3 °C 42.5 °F /  5.8 °C 29.99 in /  1015.5 hPa North 3.0 mph /  4.8 km/h 5.8 mph /  9.3 km/h 47 % 0.00 in /  0 mm
11:27 63.3 °F /  17.4 °C 41.6 °F /  5.3 °C 29.99 in /  1015.5 hPa ENE 1.6 mph /  2.6 km/h 3.5 mph /  5.6 km/h 45 % 0.00 in /  0 mm
11:32 63.6 °F /  17.6 °C 44.1 °F /  6.7 °C 29.99 in /  1015.5 hPa NNE 1.6 mph /  2.6 km/h 4.6 mph /  7.4 km/h 49 % 0.00 in /  0 mm
11:37 63.2 °F /  17.3 °C 42.6 °F /  5.9 °C 29.99 in /  1015.5 hPa ENE 1.8 mph /  2.9 km/h 4.6 mph /  7.4 km/h 47 % 0.00 in /  0 mm
11:42 63.4 °F /  17.4 °C 44.4 °F /  6.9 °C 30.00 in /  1015.8 hPa North 3.2 mph /  5.1 km/h 4.6 mph /  7.4 km/h 50 % 0.00 in /  0 mm
11:47 62.7 °F /  17.1 °C 41.0 °F /  5 °C 30.00 in /  1015.8 hPa NNE 3.5 mph /  5.6 km/h 4.6 mph /  7.4 km/h 45 % 0.00 in /  0 mm
11:52 62.4 °F /  16.9 °C 44.0 °F /  6.7 °C 29.99 in /  1015.5 hPa NNE 2.1 mph /  3.4 km/h 4.6 mph /  7.4 km/h 51 % 0.00 in /  0 mm
11:57 62.3 °F /  16.8 °C 43.4 °F /  6.3 °C 29.99 in /  1015.5 hPa ENE 2.6 mph /  4.2 km/h 4.0 mph /  6.4 km/h 50 % 0.00 in /  0 mm
12:02 62.7 °F /  17.1 °C 44.8 °F /  7.1 °C 29.99 in /  1015.5 hPa NE 1.2 mph /  1.9 km/h 2.0 mph /  3.2 km/h 52 % 0.00 in /  0 mm
12:07 63.0 °F /  17.2 °C 43.5 °F /  6.4 °C 29.99 in /  1015.5 hPa ENE 2.2 mph /  3.5 km/h 3.5 mph /  5.6 km/h 49 % 0.00 in /  0 mm
12:08 63.1 °F /  17.3 °C 44.2 °F /  6.8 °C 29.99 in /  1015.5 hPa ENE 0.6 mph /  1 km/h 3.5 mph /  5.6 km/h 50 % 0.00 in /  0 mm
12:13 62.8 °F /  17.1 °C 42.8 °F /  6 °C 29.99 in /  1015.5 hPa North 2.1 mph /  3.4 km/h 3.5 mph /  5.6 km/h 48 % 0.00 in /  0 mm
12:18 62.9 °F /  17.2 °C 40.6 °F /  4.8 °C 29.99 in /  1015.5 hPa NW 0.5 mph /  0.8 km/h 1.2 mph /  1.9 km/h 44 % 0.00 in /  0 mm
12:24 63.2 °F /  17.3 °C 43.7 °F /  6.5 °C 29.98 in /  1015.1 hPa NNE 2.3 mph /  3.7 km/h 5.8 mph /  9.3 km/h 49 % 0.00 in /  0 mm
12:29 63.2 °F /  17.3 °C 42.1 °F /  5.6 °C 29.98 in /  1015.1 hPa NNE 4.1 mph /  6.6 km/h 5.8 mph /  9.3 km/h 46 % 0.00 in /  0 mm
12:34 63.3 °F /  17.4 °C 44.3 °F /  6.8 °C 29.98 in /  1015.1 hPa NNW 1.6 mph /  2.6 km/h 5.8 mph /  9.3 km/h 50 % 0.00 in /  0 mm
12:39 63.6 °F /  17.6 °C 44.6 °F /  7 °C 29.98 in /  1015.1 hPa West 1.3 mph /  2.1 km/h 3.5 mph /  5.6 km/h 50 % 0.00 in /  0 mm
12:44 64.0 °F /  17.8 °C 42.8 °F /  6 °C 29.98 in /  1015.1 hPa WSW 0.1 mph /  0.2 km/h 1.2 mph /  1.9 km/h 46 % 0.00 in /  0 mm
12:49 64.4 °F /  18 °C 42.6 °F /  5.9 °C 29.98 in /  1015.1 hPa NNE 2.4 mph /  3.9 km/h 6.0 mph /  9.7 km/h 45 % 0.00 in /  0 mm
12:54 64.7 °F /  18.2 °C 43.4 °F /  6.3 °C 29.98 in /  1015.1 hPa North 3.4 mph /  5.5 km/h 5.8 mph /  9.3 km/h 46 % 0.00 in /  0 mm
12:59 65.2 °F /  18.4 °C 43.9 °F /  6.6 °C 29.98 in /  1015.1 hPa WNW 2.5 mph /  4 km/h 5.8 mph /  9.3 km/h 46 % 0.00 in /  0 mm
13:04 64.7 °F /  18.2 °C 42.3 °F /  5.7 °C 29.98 in /  1015.1 hPa WNW 0.1 mph /  0.2 km/h 1.2 mph /  1.9 km/h 44 % 0.00 in /  0 mm
13:09 64.2 °F /  17.9 °C 43.5 °F /  6.4 °C 29.98 in /  1015.1 hPa NW 1.1 mph /  1.8 km/h 2.3 mph /  3.7 km/h 47 % 0.00 in /  0 mm
13:14 64.0 °F /  17.8 °C 42.2 °F /  5.7 °C 29.97 in /  1014.8 hPa West 0.2 mph /  0.3 km/h 3.5 mph /  5.6 km/h 45 % 0.00 in /  0 mm
13:19 63.7 °F /  17.6 °C 41.4 °F /  5.2 °C 29.97 in /  1014.8 hPa WSW 1.5 mph /  2.4 km/h 4.6 mph /  7.4 km/h 44 % 0.00 in /  0 mm
13:24 63.5 °F /  17.5 °C 41.8 °F /  5.4 °C 29.97 in /  1014.8 hPa SW 3.8 mph /  6.1 km/h 6.9 mph /  11.1 km/h 45 % 0.00 in /  0 mm
13:29 63.6 °F /  17.6 °C 44.1 °F /  6.7 °C 29.97 in /  1014.8 hPa WSW 3.6 mph /  5.8 km/h 6.0 mph /  9.7 km/h 49 % 0.00 in /  0 mm
13:34 64.2 °F /  17.9 °C 43.5 °F /  6.4 °C 29.97 in /  1014.8 hPa NW 1.4 mph /  2.3 km/h 5.8 mph /  9.3 km/h 47 % 0.00 in /  0 mm
13:39 64.1 °F /  17.8 °C 41.1 °F /  5.1 °C 29.97 in /  1014.8 hPa West 0.6 mph /  1 km/h 1.2 mph /  1.9 km/h 43 % 0.00 in /  0 mm
13:44 64.3 °F /  17.9 °C 42.5 °F /  5.8 °C 29.97 in /  1014.8 hPa NW 1.2 mph /  1.9 km/h 2.3 mph /  3.7 km/h 45 % 0.00 in /  0 mm
13:50 64.5 °F /  18.1 °C 43.3 °F /  6.3 °C 29.97 in /  1014.8 hPa WNW 0.3 mph /  0.5 km/h 2.0 mph /  3.2 km/h 46 % 0.00 in /  0 mm
13:55 64.3 °F /  17.9 °C 41.3 °F /  5.2 °C 29.97 in /  1014.8 hPa WSW 0.9 mph /  1.4 km/h 6.9 mph /  11.1 km/h 43 % 0.00 in /  0 mm
14:00 64.2 °F /  17.9 °C 43.0 °F /  6.1 °C 29.97 in /  1014.8 hPa West 0.8 mph /  1.3 km/h 3.5 mph /  5.6 km/h 46 % 0.00 in /  0 mm
14:05 64.5 °F /  18.1 °C 42.7 °F /  5.9 °C 29.97 in /  1014.8 hPa North 1.4 mph /  2.3 km/h 4.6 mph /  7.4 km/h 45 % 0.00 in /  0 mm
14:10 64.8 °F /  18.2 °C 45.2 °F /  7.3 °C 29.97 in /  1014.8 hPa North 1.4 mph /  2.3 km/h 3.5 mph /  5.6 km/h 49 % 0.00 in /  0 mm
14:15 65.3 °F /  18.5 °C 43.4 °F /  6.3 °C 29.97 in /  1014.8 hPa NNW 2.4 mph /  3.9 km/h 4.6 mph /  7.4 km/h 45 % 0.00 in /  0 mm
14:20 65.4 °F /  18.6 °C 44.1 °F /  6.7 °C 29.97 in /  1014.8 hPa NNW 1.0 mph /  1.6 km/h 3.5 mph /  5.6 km/h 46 % 0.00 in /  0 mm
14:25 65.6 °F /  18.7 °C 43.1 °F /  6.2 °C 29.98 in /  1015.1 hPa NW 1.8 mph /  2.9 km/h 3.5 mph /  5.6 km/h 44 % 0.00 in /  0 mm
14:30 65.9 °F /  18.8 °C 43.4 °F /  6.3 °C 29.97 in /  1014.8 hPa NW 1.1 mph /  1.8 km/h 3.5 mph /  5.6 km/h 44 % 0.00 in /  0 mm
14:35 66.4 °F /  19.1 °C 43.8 °F /  6.6 °C 29.97 in /  1014.8 hPa NNW 2.3 mph /  3.7 km/h 3.5 mph /  5.6 km/h 44 % 0.00 in /  0 mm
14:40 66.8 °F /  19.3 °C 43.0 °F /  6.1 °C 29.98 in /  1015.1 hPa North 2.7 mph /  4.3 km/h 4.6 mph /  7.4 km/h 42 % 0.00 in /  0 mm
14:45 66.5 °F /  19.2 °C 43.3 °F /  6.3 °C 29.98 in /  1015.1 hPa North 0.7 mph /  1.1 km/h 2.3 mph /  3.7 km/h 43 % 0.00 in /  0 mm
14:50 66.4 °F /  19.1 °C 42.6 °F /  5.9 °C 29.98 in /  1015.1 hPa North 2.0 mph /  3.2 km/h 4.0 mph /  6.4 km/h 42 % 0.00 in /  0 mm
14:55 66.5 °F /  19.2 °C 43.3 °F /  6.3 °C 29.97 in /  1014.8 hPa North 2.9 mph /  4.7 km/h 6.0 mph /  9.7 km/h 43 % 0.00 in /  0 mm
15:00 66.1 °F /  18.9 °C 40.4 °F /  4.7 °C 29.97 in /  1014.8 hPa ENE 2.5 mph /  4 km/h 3.5 mph /  5.6 km/h 39 % 0.00 in /  0 mm
15:05 65.5 °F /  18.6 °C 41.8 °F /  5.4 °C 29.97 in /  1014.8 hPa NE 1.9 mph /  3.1 km/h 3.5 mph /  5.6 km/h 42 % 0.00 in /  0 mm
15:10 64.9 °F /  18.3 °C 40.0 °F /  4.4 °C 29.97 in /  1014.8 hPa ENE 0.2 mph /  0.3 km/h 2.3 mph /  3.7 km/h 40 % 0.00 in /  0 mm
15:15 64.6 °F /  18.1 °C 41.6 °F /  5.3 °C 29.97 in /  1014.8 hPa North 2.9 mph /  4.7 km/h 3.5 mph /  5.6 km/h 43 % 0.00 in /  0 mm
15:20 64.3 °F /  17.9 °C 40.1 °F /  4.5 °C 29.97 in /  1014.8 hPa ENE 3.0 mph /  4.8 km/h 4.0 mph /  6.4 km/h 41 % 0.00 in /  0 mm
15:25 63.6 °F /  17.6 °C 40.1 °F /  4.5 °C 29.97 in /  1014.8 hPa ENE 0.3 mph /  0.5 km/h 1.2 mph /  1.9 km/h 42 % 0.00 in /  0 mm
15:31 63.1 °F /  17.3 °C 39.6 °F /  4.2 °C 29.97 in /  1014.8 hPa ENE 1.0 mph /  1.6 km/h 5.0 mph /  8 km/h 42 % 0.00 in /  0 mm
15:36 62.8 °F /  17.1 °C 41.7 °F /  5.4 °C 29.97 in /  1014.8 hPa NE 1.0 mph /  1.6 km/h 4.0 mph /  6.4 km/h 46 % 0.00 in /  0 mm
15:41 62.6 °F /  17 °C 42.1 °F /  5.6 °C 29.97 in /  1014.8 hPa NE 1.0 mph /  1.6 km/h 4.0 mph /  6.4 km/h 47 % 0.00 in /  0 mm
15:46 62.6 °F /  17 °C 41.5 °F /  5.3 °C 29.97 in /  1014.8 hPa ENE 1.2 mph /  1.9 km/h 3.5 mph /  5.6 km/h 46 % 0.00 in /  0 mm
15:51 62.7 °F /  17.1 °C 39.9 °F /  4.4 °C 29.97 in /  1014.8 hPa ENE 2.4 mph /  3.9 km/h 3.5 mph /  5.6 km/h 43 % 0.00 in /  0 mm
15:55 62.4 °F /  16.9 °C 41.3 °F /  5.2 °C 29.97 in /  1014.8 hPa NE 0.7 mph /  1.1 km/h 4.6 mph /  7.4 km/h 46 % 0.00 in /  0 mm
16:01 62.5 °F /  16.9 °C 43.1 °F /  6.2 °C 29.97 in /  1014.8 hPa NE 1.5 mph /  2.4 km/h 4.6 mph /  7.4 km/h 49 % 0.00 in /  0 mm
16:06 62.5 °F /  16.9 °C 40.2 °F /  4.6 °C 29.97 in /  1014.8 hPa ENE 1.0 mph /  1.6 km/h 6.0 mph /  9.7 km/h 44 % 0.00 in /  0 mm
16:11 62.6 °F /  17 °C 41.5 °F /  5.3 °C 29.97 in /  1014.8 hPa Calm   4.0 mph /  6.4 km/h 46 % 0.00 in /  0 mm
16:16 62.6 °F /  17 °C 39.8 °F /  4.3 °C 29.97 in /  1014.8 hPa ENE 2.0 mph /  3.2 km/h 6.0 mph /  9.7 km/h 43 % 0.00 in /  0 mm
16:21 62.6 °F /  17 °C 42.1 °F /  5.6 °C 29.97 in /  1014.8 hPa Calm   1.0 mph /  1.6 km/h 47 % 0.00 in /  0 mm
16:26 62.6 °F /  17 °C 40.9 °F /  4.9 °C 29.97 in /  1014.8 hPa NNE 1.0 mph /  1.6 km/h 4.0 mph /  6.4 km/h 45 % 0.00 in /  0 mm
16:31 62.6 °F /  17 °C 41.5 °F /  5.3 °C 29.97 in /  1014.8 hPa NE 1.0 mph /  1.6 km/h 5.0 mph /  8 km/h 46 % 0.00 in /  0 mm
16:36 62.5 °F /  16.9 °C 41.4 °F /  5.2 °C 29.97 in /  1014.8 hPa ENE 1.0 mph /  1.6 km/h 4.0 mph /  6.4 km/h 46 % 0.00 in /  0 mm
16:41 62.5 °F /  16.9 °C 42.0 °F /  5.6 °C 29.97 in /  1014.8 hPa ENE 2.0 mph /  3.2 km/h 4.0 mph /  6.4 km/h 47 % 0.00 in /  0 mm
16:46 62.3 °F /  16.8 °C 40.7 °F /  4.8 °C 29.98 in /  1015.1 hPa ENE 0.2 mph /  0.3 km/h 3.5 mph /  5.6 km/h 45 % 0.00 in /  0 mm
16:51 62.3 °F /  16.8 °C 41.2 °F /  5.1 °C 29.97 in /  1014.8 hPa ENE 0.1 mph /  0.2 km/h 1.2 mph /  1.9 km/h 46 % 0.00 in /  0 mm
16:56 62.3 °F /  16.8 °C 41.2 °F /  5.1 °C 29.97 in /  1014.8 hPa ENE 1.0 mph /  1.6 km/h 3.5 mph /  5.6 km/h 46 % 0.00 in /  0 mm
17:01 62.3 °F /  16.8 °C 41.2 °F /  5.1 °C 29.97 in /  1014.8 hPa ENE 2.0 mph /  3.2 km/h 3.5 mph /  5.6 km/h 46 % 0.00 in /  0 mm
17:06 62.2 °F /  16.8 °C 40.0 °F /  4.4 °C 29.97 in /  1014.8 hPa NE 0.7 mph /  1.1 km/h 2.3 mph /  3.7 km/h 44 % 0.00 in /  0 mm
17:11 62.1 °F /  16.7 °C 41.1 °F /  5.1 °C 29.97 in /  1014.8 hPa ENE 1.4 mph /  2.3 km/h 3.5 mph /  5.6 km/h 46 % 0.00 in /  0 mm
17:16 61.8 °F /  16.6 °C 39.6 °F /  4.2 °C 29.97 in /  1014.8 hPa NE 1.4 mph /  2.3 km/h 3.5 mph /  5.6 km/h 44 % 0.00 in /  0 mm
17:21 61.7 °F /  16.5 °C 40.1 °F /  4.5 °C 29.97 in /  1014.8 hPa NE 0.3 mph /  0.5 km/h 2.3 mph /  3.7 km/h 45 % 0.00 in /  0 mm
17:26 61.6 °F /  16.4 °C 40.0 °F /  4.4 °C 29.97 in /  1014.8 hPa NE 2.3 mph /  3.7 km/h 3.5 mph /  5.6 km/h 45 % 0.00 in /  0 mm
17:31 61.4 °F /  16.3 °C 41.0 °F /  5 °C 29.97 in /  1014.8 hPa NE 0.1 mph /  0.2 km/h 3.5 mph /  5.6 km/h 47 % 0.00 in /  0 mm
17:36 61.3 °F /  16.3 °C 40.3 °F /  4.6 °C 29.97 in /  1014.8 hPa Calm   1.2 mph /  1.9 km/h 46 % 0.00 in /  0 mm
17:41 61.1 °F /  16.2 °C 41.2 °F /  5.1 °C 29.97 in /  1014.8 hPa Calm   1.0 mph /  1.6 km/h 48 % 0.00 in /  0 mm
17:46 60.9 °F /  16.1 °C 41.1 °F /  5.1 °C 29.97 in /  1014.8 hPa Calm     48 % 0.00 in /  0 mm
17:51 60.8 °F /  16 °C 41.0 °F /  5 °C 29.97 in /  1014.8 hPa NE 0.1 mph /  0.2 km/h 2.3 mph /  3.7 km/h 48 % 0.00 in /  0 mm
17:56 60.7 °F /  15.9 °C 39.2 °F /  4 °C 29.97 in /  1014.8 hPa NE 1.8 mph /  2.9 km/h 3.5 mph /  5.6 km/h 45 % 0.00 in /  0 mm
17:58 60.6 °F /  15.9 °C 39.1 °F /  3.9 °C 29.97 in /  1014.8 hPa Calm   1.2 mph /  1.9 km/h 45 % 0.00 in /  0 mm
18:03 60.5 °F /  15.8 °C 39.6 °F /  4.2 °C 29.97 in /  1014.8 hPa NE 0.1 mph /  0.2 km/h 1.2 mph /  1.9 km/h 46 % 0.00 in /  0 mm
18:09 60.5 °F /  15.8 °C 39.6 °F /  4.2 °C 29.97 in /  1014.8 hPa Calm     46 % 0.00 in /  0 mm
18:14 60.4 °F /  15.8 °C 39.5 °F /  4.2 °C 29.97 in /  1014.8 hPa NE 0.2 mph /  0.3 km/h 1.2 mph /  1.9 km/h 46 % 0.00 in /  0 mm
18:19 60.3 °F /  15.7 °C 40.0 °F /  4.4 °C 29.97 in /  1014.8 hPa NE 0.2 mph /  0.3 km/h 1.2 mph /  1.9 km/h 47 % 0.00 in /  0 mm
18:24 60.1 °F /  15.6 °C 38.7 °F /  3.7 °C 29.97 in /  1014.8 hPa Calm     45 % 0.00 in /  0 mm
18:29 60.0 °F /  15.6 °C 40.2 °F /  4.6 °C 29.96 in /  1014.4 hPa Calm     48 % 0.00 in /  0 mm
18:34 59.8 °F /  15.4 °C 39.0 °F /  3.9 °C 29.96 in /  1014.4 hPa Calm   1.2 mph /  1.9 km/h 46 % 0.00 in /  0 mm
18:39 59.7 °F /  15.4 °C 38.9 °F /  3.8 °C 29.97 in /  1014.8 hPa NE 0.7 mph /  1.1 km/h 2.0 mph /  3.2 km/h 46 % 0.00 in /  0 mm
18:44 59.6 °F /  15.3 °C 38.8 °F /  3.8 °C 29.97 in /  1014.8 hPa NE 1.0 mph /  1.6 km/h 2.3 mph /  3.7 km/h 46 % 0.00 in /  0 mm
18:49 59.5 °F /  15.3 °C 38.7 °F /  3.7 °C 29.97 in /  1014.8 hPa Calm   1.2 mph /  1.9 km/h 46 % 0.00 in /  0 mm
18:54 59.5 °F /  15.3 °C 38.1 °F /  3.4 °C 29.97 in /  1014.8 hPa NE 0.2 mph /  0.3 km/h 1.2 mph /  1.9 km/h 45 % 0.00 in /  0 mm
18:59 59.4 °F /  15.2 °C 38.6 °F /  3.7 °C 29.97 in /  1014.8 hPa NE 0.1 mph /  0.2 km/h 2.3 mph /  3.7 km/h 46 % 0.00 in /  0 mm
19:04 59.3 °F /  15.2 °C 39.1 °F /  3.9 °C 29.97 in /  1014.8 hPa NE 0.4 mph /  0.6 km/h 2.3 mph /  3.7 km/h 47 % 0.00 in /  0 mm
19:09 59.2 °F /  15.1 °C 40.0 °F /  4.4 °C 29.98 in /  1015.1 hPa Calm     49 % 0.00 in /  0 mm
19:14 59.1 °F /  15.1 °C 40.5 °F /  4.7 °C 29.98 in /  1015.1 hPa Calm     50 % 0.00 in /  0 mm
19:19 58.9 °F /  14.9 °C 39.2 °F /  4 °C 29.98 in /  1015.1 hPa NE 0.4 mph /  0.6 km/h 1.2 mph /  1.9 km/h 48 % 0.00 in /  0 mm
19:24 58.7 °F /  14.8 °C 40.6 °F /  4.8 °C 29.98 in /  1015.1 hPa Calm     51 % 0.00 in /  0 mm
19:29 58.5 °F /  14.7 °C 39.9 °F /  4.4 °C 29.98 in /  1015.1 hPa Calm     50 % 0.00 in /  0 mm
19:34 58.4 °F /  14.7 °C 40.3 °F /  4.6 °C 29.98 in /  1015.1 hPa Calm     51 % 0.00 in /  0 mm
19:39 58.3 °F /  14.6 °C 40.2 °F /  4.6 °C 29.98 in /  1015.1 hPa Calm   1.2 mph /  1.9 km/h 51 % 0.00 in /  0 mm
19:44 58.1 °F /  14.5 °C 39.5 °F /  4.2 °C 29.98 in /  1015.1 hPa Calm     50 % 0.00 in /  0 mm
19:49 57.9 °F /  14.4 °C 40.9 °F /  4.9 °C 29.98 in /  1015.1 hPa Calm     53 % 0.00 in /  0 mm
19:54 57.7 °F /  14.3 °C 42.1 °F /  5.6 °C 29.98 in /  1015.1 hPa Calm     56 % 0.00 in /  0 mm
19:59 57.5 °F /  14.2 °C 42.8 °F /  6 °C 29.99 in /  1015.5 hPa Calm   1.0 mph /  1.6 km/h 58 % 0.00 in /  0 mm
20:00 57.5 °F /  14.2 °C 42.8 °F /  6 °C 29.99 in /  1015.5 hPa Calm   1.2 mph /  1.9 km/h 58 % 0.00 in /  0 mm
20:05 57.2 °F /  14 °C 43.0 °F /  6.1 °C 29.99 in /  1015.5 hPa ENE 0.2 mph /  0.3 km/h 1.2 mph /  1.9 km/h 59 % 0.00 in /  0 mm
20:10 56.9 °F /  13.8 °C 42.7 °F /  5.9 °C 29.99 in /  1015.5 hPa East 1.2 mph /  1.9 km/h 3.5 mph /  5.6 km/h 59 % 0.00 in /  0 mm
20:15 56.6 °F /  13.7 °C 42.4 °F /  5.8 °C 29.99 in /  1015.5 hPa Calm     59 % 0.00 in /  0 mm
20:20 56.4 °F /  13.6 °C 42.7 °F /  5.9 °C 29.99 in /  1015.5 hPa East 0.4 mph /  0.6 km/h 1.0 mph /  1.6 km/h 60 % 0.00 in /  0 mm
20:25 56.3 °F /  13.5 °C 43.0 °F /  6.1 °C 29.99 in /  1015.5 hPa East 0.6 mph /  1 km/h 1.2 mph /  1.9 km/h 61 % 0.00 in /  0 mm
20:30 56.0 °F /  13.3 °C 43.2 °F /  6.2 °C 29.99 in /  1015.5 hPa East 0.2 mph /  0.3 km/h 1.2 mph /  1.9 km/h 62 % 0.00 in /  0 mm
20:35 55.7 °F /  13.2 °C 42.9 °F /  6.1 °C 29.99 in /  1015.5 hPa ESE 0.5 mph /  0.8 km/h 3.5 mph /  5.6 km/h 62 % 0.00 in /  0 mm
20:40 55.4 °F /  13 °C 42.6 °F /  5.9 °C 30.00 in /  1015.8 hPa Calm     62 % 0.00 in /  0 mm
20:45 55.3 °F /  12.9 °C 42.9 °F /  6.1 °C 30.00 in /  1015.8 hPa Calm   2.3 mph /  3.7 km/h 63 % 0.00 in /  0 mm
20:50 55.2 °F /  12.9 °C 42.8 °F /  6 °C 30.00 in /  1015.8 hPa Calm     63 % 0.00 in /  0 mm
20:55 55.1 °F /  12.8 °C 43.1 °F /  6.2 °C 30.00 in /  1015.8 hPa SE 0.9 mph /  1.4 km/h 2.3 mph /  3.7 km/h 64 % 0.00 in /  0 mm
21:01 54.9 °F /  12.7 °C 42.9 °F /  6.1 °C 30.00 in /  1015.8 hPa SE 0.7 mph /  1.1 km/h 1.2 mph /  1.9 km/h 64 % 0.00 in /  0 mm
21:06 54.8 °F /  12.7 °C 43.3 °F /  6.3 °C 30.00 in /  1015.8 hPa SSE 0.6 mph /  1 km/h 2.0 mph /  3.2 km/h 65 % 0.00 in /  0 mm
21:11 54.7 °F /  12.6 °C 43.2 °F /  6.2 °C 30.01 in /  1016.1 hPa Calm   2.0 mph /  3.2 km/h 65 % 0.00 in /  0 mm
21:16 54.5 °F /  12.5 °C 43.0 °F /  6.1 °C 30.01 in /  1016.1 hPa SSE 0.6 mph /  1 km/h 2.3 mph /  3.7 km/h 65 % 0.00 in /  0 mm
21:21 54.4 °F /  12.4 °C 43.3 °F /  6.3 °C 30.01 in /  1016.1 hPa South 0.6 mph /  1 km/h 2.3 mph /  3.7 km/h 66 % 0.00 in /  0 mm
21:26 54.2 °F /  12.3 °C 43.1 °F /  6.2 °C 30.02 in /  1016.5 hPa South 0.3 mph /  0.5 km/h 2.3 mph /  3.7 km/h 66 % 0.00 in /  0 mm
21:31 54.1 °F /  12.3 °C 43.4 °F /  6.3 °C 30.01 in /  1016.1 hPa Calm   2.0 mph /  3.2 km/h 67 % 0.00 in /  0 mm
21:36 53.9 °F /  12.2 °C 43.2 °F /  6.2 °C 30.02 in /  1016.5 hPa Calm   1.2 mph /  1.9 km/h 67 % 0.00 in /  0 mm
21:41 53.8 °F /  12.1 °C 42.7 °F /  5.9 °C 30.02 in /  1016.5 hPa Calm   1.0 mph /  1.6 km/h 66 % 0.00 in /  0 mm
21:46 53.6 °F /  12 °C 42.9 °F /  6.1 °C 30.02 in /  1016.5 hPa SSW 0.7 mph /  1.1 km/h 1.2 mph /  1.9 km/h 67 % 0.00 in /  0 mm
21:51 53.5 °F /  11.9 °C 43.2 °F /  6.2 °C 30.02 in /  1016.5 hPa SSW 1.0 mph /  1.6 km/h 3.5 mph /  5.6 km/h 68 % 0.00 in /  0 mm
21:56 53.3 °F /  11.8 °C 43.4 °F /  6.3 °C 30.02 in /  1016.5 hPa SW 1.7 mph /  2.7 km/h 3.0 mph /  4.8 km/h 69 % 0.00 in /  0 mm
22:01 53.2 °F /  11.8 °C 43.3 °F /  6.3 °C 30.02 in /  1016.5 hPa SW 0.5 mph /  0.8 km/h 3.5 mph /  5.6 km/h 69 % 0.00 in /  0 mm
22:06 53.1 °F /  11.7 °C 43.2 °F /  6.2 °C 30.02 in /  1016.5 hPa Calm   1.2 mph /  1.9 km/h 69 % 0.00 in /  0 mm
22:11 52.9 °F /  11.6 °C 43.4 °F /  6.3 °C 30.02 in /  1016.5 hPa SW 0.5 mph /  0.8 km/h 2.3 mph /  3.7 km/h 70 % 0.00 in /  0 mm
22:16 52.8 °F /  11.6 °C 43.7 °F /  6.5 °C 30.02 in /  1016.5 hPa West 3.6 mph /  5.8 km/h 4.6 mph /  7.4 km/h 71 % 0.00 in /  0 mm
22:21 52.6 °F /  11.4 °C 43.5 °F /  6.4 °C 30.02 in /  1016.5 hPa West 0.9 mph /  1.4 km/h 2.3 mph /  3.7 km/h 71 % 0.00 in /  0 mm
22:26 52.6 °F /  11.4 °C 43.5 °F /  6.4 °C 30.02 in /  1016.5 hPa West 0.1 mph /  0.2 km/h 2.3 mph /  3.7 km/h 71 % 0.00 in /  0 mm
22:31 52.5 °F /  11.4 °C 43.4 °F /  6.3 °C 30.02 in /  1016.5 hPa Calm   1.2 mph /  1.9 km/h 71 % 0.00 in /  0 mm
22:36 52.4 °F /  11.3 °C 43.6 °F /  6.4 °C 30.02 in /  1016.5 hPa West 1.3 mph /  2.1 km/h 2.3 mph /  3.7 km/h 72 % 0.00 in /  0 mm
22:41 52.4 °F /  11.3 °C 43.6 °F /  6.4 °C 30.02 in /  1016.5 hPa West 1.2 mph /  1.9 km/h 3.0 mph /  4.8 km/h 72 % 0.00 in /  0 mm
22:46 52.4 °F /  11.3 °C 44.0 °F /  6.7 °C 30.02 in /  1016.5 hPa Calm   1.0 mph /  1.6 km/h 73 % 0.00 in /  0 mm
22:51 52.3 °F /  11.3 °C 43.9 °F /  6.6 °C 30.02 in /  1016.5 hPa Calm     73 % 0.00 in /  0 mm
22:56 52.3 °F /  11.3 °C 43.9 °F /  6.6 °C 30.02 in /  1016.5 hPa Calm     73 % 0.00 in /  0 mm
23:01 52.3 °F /  11.3 °C 43.9 °F /  6.6 °C 30.02 in /  1016.5 hPa WNW 1.1 mph /  1.8 km/h 2.0 mph /  3.2 km/h 73 % 0.00 in /  0 mm
23:06 52.3 °F /  11.3 °C 42.8 °F /  6 °C 30.02 in /  1016.5 hPa NW 0.1 mph /  0.2 km/h 2.3 mph /  3.7 km/h 70 % 0.00 in /  0 mm
23:11 52.3 °F /  11.3 °C 42.4 °F /  5.8 °C 30.02 in /  1016.5 hPa NNE 0.3 mph /  0.5 km/h 3.0 mph /  4.8 km/h 69 % 0.00 in /  0 mm
23:16 52.3 °F /  11.3 °C 41.7 °F /  5.4 °C 30.02 in /  1016.5 hPa ENE 3.0 mph /  4.8 km/h 5.8 mph /  9.3 km/h 67 % 0.00 in /  0 mm
23:21 52.3 °F /  11.3 °C 41.3 °F /  5.2 °C 30.02 in /  1016.5 hPa North 3.6 mph /  5.8 km/h 6.0 mph /  9.7 km/h 66 % 0.00 in /  0 mm
23:26 52.4 °F /  11.3 °C 41.4 °F /  5.2 °C 30.02 in /  1016.5 hPa NNE 2.9 mph /  4.7 km/h 5.0 mph /  8 km/h 66 % 0.00 in /  0 mm
23:31 52.5 °F /  11.4 °C 41.5 °F /  5.3 °C 30.02 in /  1016.5 hPa NNE 2.5 mph /  4 km/h 5.0 mph /  8 km/h 66 % 0.00 in /  0 mm
23:36 52.5 °F /  11.4 °C 41.5 °F /  5.3 °C 30.02 in /  1016.5 hPa NNE 4.4 mph /  7.1 km/h 8.1 mph /  13 km/h 66 % 0.00 in /  0 mm
23:41 52.6 °F /  11.4 °C 40.4 °F /  4.7 °C 30.02 in /  1016.5 hPa North 3.2 mph /  5.1 km/h 6.9 mph /  11.1 km/h 63 % 0.00 in /  0 mm
23:46 52.6 °F /  11.4 °C 40.4 °F /  4.7 °C 30.02 in /  1016.5 hPa NNE 3.7 mph /  6 km/h 4.6 mph /  7.4 km/h 63 % 0.00 in /  0 mm
23:51 52.6 °F /  11.4 °C 40.8 °F /  4.9 °C 30.01 in /  1016.1 hPa NNE 2.4 mph /  3.9 km/h 3.5 mph /  5.6 km/h 64 % 0.00 in /  0 mm
23:57 52.6 °F /  11.4 °C 41.2 °F /  5.1 °C 30.01 in /  1016.1 hPa North 2.3 mph /  3.7 km/h 4.6 mph /  7.4 km/h 65 % 0.00 in /  0 mm
Crab Meadow Weather
Compliments of Weather Underground - 3 mb

Script developed by  Jim McMurry - jmcmurry@mwt.net Adapted for the template by  Wim van der Kuil - Leuven-Template.eu

Astronomy: A year on Venus is 225 days.